Time,TemperatureF,DewpointF,PressureIn,WindDirection,WindDirectionDegrees,WindSpeedMPH,WindSpeedGustMPH,Humidity,HourlyPrecipIn,Conditions,Clouds,dailyrainin,SoftwareType,DateUTC
2013-02-05 00:02:00,16.0,6.0,29.80,WNW,284,0.0,0.0,64,0.00,,,0.00,,2013-02-05 05:02:00,
2013-02-05 00:11:00,16.0,6.0,29.80,WNW,284,0.0,0.0,64,0.00,,,0.00,,2013-02-05 05:11:00,
2013-02-05 00:22:00,15.0,5.0,29.80,WNW,284,0.0,0.0,65,0.00,,,0.00,,2013-02-05 05:22:00,
2013-02-05 00:32:00,14.0,5.0,29.80,WNW,284,0.0,0.0,67,0.00,,,0.00,,2013-02-05 05:32:00,
2013-02-05 00:42:00,14.0,5.0,29.80,WNW,284,0.0,0.0,67,0.00,,,0.00,,2013-02-05 05:42:00,
2013-02-05 00:52:00,14.0,6.0,29.80,West,265,1.0,3.0,69,0.00,,,0.00,,2013-02-05 05:52:00,
2013-02-05 01:02:00,14.0,6.0,29.80,West,264,0.0,5.0,69,0.00,,,0.00,,2013-02-05 06:02:00,
2013-02-05 01:11:00,14.0,6.0,29.80,West,264,0.0,5.0,69,0.00,,,0.00,,2013-02-05 06:11:00,
2013-02-05 01:21:00,14.0,6.0,29.80,West,264,0.0,0.0,70,0.00,,,0.00,,2013-02-05 06:21:00,
2013-02-05 01:32:00,14.0,6.0,29.80,SSW,193,0.0,4.0,69,0.00,,,0.00,,2013-02-05 06:32:00,
2013-02-05 01:42:00,14.0,6.0,29.80,SSW,193,0.0,4.0,69,0.00,,,0.00,,2013-02-05 06:42:00,
2013-02-05 01:52:00,14.0,6.0,29.81,SSW,205,0.0,1.0,70,0.00,,,0.00,,2013-02-05 06:52:00,
2013-02-05 02:01:00,14.0,6.0,29.81,WSW,254,0.0,3.0,71,0.00,,,0.00,,2013-02-05 07:01:00,
2013-02-05 02:11:00,14.0,6.0,29.81,WSW,254,0.0,3.0,71,0.00,,,0.00,,2013-02-05 07:11:00,
2013-02-05 02:22:00,14.0,6.0,29.81,WSW,241,0.0,3.0,71,0.00,,,0.00,,2013-02-05 07:22:00,
2013-02-05 02:32:00,14.0,6.0,29.81,WSW,246,0.0,1.0,71,0.00,,,0.00,,2013-02-05 07:32:00,
2013-02-05 02:42:00,14.0,6.0,29.81,WSW,246,0.0,1.0,71,0.00,,,0.00,,2013-02-05 07:42:00,
2013-02-05 02:52:00,14.0,6.0,29.81,West,267,0.0,2.0,71,0.00,,,0.00,,2013-02-05 07:52:00,
2013-02-05 03:01:00,14.0,6.0,29.80,West,265,0.0,2.0,71,0.00,,,0.00,,2013-02-05 08:01:00,
2013-02-05 03:11:00,14.0,6.0,29.80,West,265,0.0,2.0,71,0.00,,,0.00,,2013-02-05 08:11:00,
2013-02-05 03:21:00,14.0,7.0,29.81,WSW,257,0.0,3.0,72,0.00,,,0.00,,2013-02-05 08:21:00,
2013-02-05 03:31:00,14.0,6.0,29.81,WSW,246,0.0,2.0,71,0.00,,,0.00,,2013-02-05 08:31:00,
2013-02-05 03:42:00,14.0,6.0,29.81,WSW,246,0.0,2.0,71,0.00,,,0.00,,2013-02-05 08:42:00,
2013-02-05 03:52:00,14.0,7.0,29.81,WSW,244,0.0,0.0,73,0.00,,,0.00,,2013-02-05 08:52:00,
2013-02-05 04:02:00,13.0,7.0,29.81,WSW,241,0.0,0.0,77,0.00,,,0.00,,2013-02-05 09:02:00,
2013-02-05 04:11:00,13.0,7.0,29.81,WSW,237,0.0,0.0,77,0.00,,,0.00,,2013-02-05 09:11:00,
2013-02-05 04:21:00,13.0,7.0,29.81,WSW,237,0.0,0.0,77,0.00,,,0.00,,2013-02-05 09:21:00,
2013-02-05 04:32:00,13.0,7.0,29.81,WSW,239,0.0,0.0,78,0.00,,,0.00,,2013-02-05 09:32:00,
2013-02-05 04:42:00,13.0,7.0,29.81,WSW,239,0.0,0.0,78,0.00,,,0.00,,2013-02-05 09:42:00,
2013-02-05 04:51:00,12.0,7.0,29.81,SW,233,0.0,0.0,80,0.00,,,0.00,,2013-02-05 09:51:00,
2013-02-05 05:02:00,12.0,7.0,29.81,SW,227,0.0,0.0,80,0.00,,,0.00,,2013-02-05 10:02:00,
2013-02-05 05:11:00,12.0,7.0,29.82,SW,226,0.0,0.0,81,0.00,,,0.00,,2013-02-05 10:11:00,
2013-02-05 05:21:00,12.0,7.0,29.82,SW,226,0.0,0.0,81,0.00,,,0.00,,2013-02-05 10:21:00,
2013-02-05 05:32:00,11.0,7.0,29.82,SW,223,0.0,0.0,82,0.00,,,0.00,,2013-02-05 10:32:00,
2013-02-05 05:42:00,11.0,7.0,29.82,SW,223,0.0,0.0,82,0.00,,,0.00,,2013-02-05 10:42:00,
2013-02-05 05:52:00,11.0,7.0,29.82,SW,222,0.0,0.0,82,0.00,,,0.00,,2013-02-05 10:52:00,
2013-02-05 06:01:00,11.0,7.0,29.83,SW,226,0.0,0.0,82,0.00,,,0.00,,2013-02-05 11:01:00,
2013-02-05 06:11:00,11.0,7.0,29.83,SW,226,0.0,0.0,82,0.00,,,0.00,,2013-02-05 11:11:00,
2013-02-05 06:22:00,11.0,7.0,29.83,SW,224,0.0,0.0,83,0.00,,,0.00,,2013-02-05 11:22:00,
2013-02-05 06:32:00,11.0,7.0,29.83,West,260,0.0,0.0,83,0.00,,,0.00,,2013-02-05 11:32:00,
2013-02-05 06:42:00,11.0,7.0,29.83,West,260,0.0,0.0,83,0.00,,,0.00,,2013-02-05 11:42:00,
2013-02-05 06:52:00,11.0,7.0,29.84,West,260,0.0,0.0,84,0.00,,,0.00,,2013-02-05 11:52:00,
2013-02-05 07:01:00,11.0,7.0,29.84,West,260,0.0,0.0,84,0.00,,,0.00,,2013-02-05 12:01:00,
2013-02-05 07:12:00,11.0,7.0,29.84,West,260,0.0,0.0,84,0.00,,,0.00,,2013-02-05 12:12:00,
2013-02-05 07:22:00,10.0,6.0,29.84,West,260,0.0,0.0,84,0.00,,,0.00,,2013-02-05 12:22:00,
2013-02-05 07:32:00,10.0,6.0,29.84,West,260,0.0,0.0,84,0.00,,,0.00,,2013-02-05 12:32:00,
2013-02-05 07:42:00,10.0,6.0,29.84,West,260,0.0,0.0,84,0.00,,,0.00,,2013-02-05 12:42:00,
2013-02-05 07:52:00,10.0,6.0,29.85,West,260,0.0,0.0,85,0.00,,,0.00,,2013-02-05 12:52:00,
2013-02-05 08:02:00,10.0,6.0,29.86,West,260,0.0,0.0,85,0.00,,,0.00,,2013-02-05 13:02:00,
2013-02-05 08:12:00,11.0,7.0,29.88,WSW,251,0.0,0.0,84,0.00,,,0.00,,2013-02-05 13:12:00,
2013-02-05 08:22:00,11.0,7.0,29.88,WSW,251,0.0,0.0,84,0.00,,,0.00,,2013-02-05 13:22:00,
2013-02-05 08:32:00,11.0,7.0,29.88,SW,220,0.0,0.0,84,0.00,,,0.00,,2013-02-05 13:32:00,
2013-02-05 08:42:00,11.0,7.0,29.88,SW,220,0.0,0.0,84,0.00,,,0.00,,2013-02-05 13:42:00,
2013-02-05 08:52:00,12.0,8.0,29.88,SW,216,0.0,0.0,84,0.00,,,0.00,,2013-02-05 13:52:00,
2013-02-05 09:01:00,12.0,8.0,29.88,SW,217,0.0,1.0,82,0.00,,,0.00,,2013-02-05 14:01:00,
2013-02-05 09:12:00,12.0,8.0,29.88,SW,217,0.0,1.0,82,0.00,,,0.00,,2013-02-05 14:12:00,
2013-02-05 09:21:00,13.0,8.0,29.88,SSW,210,0.0,0.0,81,0.00,,,0.00,,2013-02-05 14:21:00,
2013-02-05 09:32:00,14.0,8.0,29.88,SSW,192,0.0,1.0,77,0.00,,,0.00,,2013-02-05 14:32:00,
2013-02-05 09:42:00,14.0,8.0,29.88,SSW,192,0.0,1.0,77,0.00,,,0.00,,2013-02-05 14:42:00,
2013-02-05 09:52:00,15.0,8.0,29.88,SSW,193,0.0,0.0,74,0.00,,,0.00,,2013-02-05 14:52:00,
2013-02-05 10:02:00,16.0,9.0,29.88,SW,233,0.0,0.0,72,0.00,,,0.00,,2013-02-05 15:02:00,
2013-02-05 10:11:00,16.0,9.0,29.88,SW,233,0.0,0.0,72,0.00,,,0.00,,2013-02-05 15:11:00,
2013-02-05 10:21:00,17.0,9.0,29.88,SSW,195,0.0,1.0,70,0.00,,,0.00,,2013-02-05 15:21:00,
2013-02-05 10:32:00,20.0,11.0,29.88,SSE,148,0.0,2.0,66,0.00,,,0.00,,2013-02-05 15:32:00,
2013-02-05 10:42:00,20.0,11.0,29.88,SSE,148,0.0,2.0,66,0.00,,,0.00,,2013-02-05 15:42:00,
2013-02-05 10:52:00,20.0,10.0,29.88,ENE,66,0.0,2.0,64,0.00,,,0.00,,2013-02-05 15:52:00,
2013-02-05 11:01:00,21.0,10.0,29.88,North,7,0.0,1.0,61,0.00,,,0.00,,2013-02-05 16:01:00,
2013-02-05 11:11:00,21.0,10.0,29.88,North,7,0.0,1.0,61,0.00,,,0.00,,2013-02-05 16:11:00,
2013-02-05 11:22:00,22.0,10.0,29.88,NNE,13,0.0,2.0,58,0.00,,,0.00,,2013-02-05 16:22:00,
2013-02-05 11:32:00,23.0,11.0,29.87,NW,306,0.0,6.0,59,0.00,,,0.00,,2013-02-05 16:32:00,
2013-02-05 11:42:00,23.0,11.0,29.87,NW,306,0.0,6.0,59,0.00,,,0.00,,2013-02-05 16:42:00,
2013-02-05 11:52:00,23.0,8.0,29.86,NW,306,3.0,8.0,53,0.00,,,0.00,,2013-02-05 16:52:00,
2013-02-05 12:01:00,24.0,9.0,29.85,North,1,0.0,7.0,53,0.00,,,0.00,,2013-02-05 17:01:00,
2013-02-05 12:11:00,24.0,9.0,29.85,North,1,0.0,7.0,53,0.00,,,0.00,,2013-02-05 17:11:00,
2013-02-05 12:22:00,24.0,9.0,29.85,NNE,17,3.0,6.0,53,0.00,,,0.00,,2013-02-05 17:22:00,
2013-02-05 12:32:00,24.0,10.0,29.84,East,80,0.0,5.0,55,0.00,,,0.00,,2013-02-05 17:32:00,
2013-02-05 12:42:00,24.0,10.0,29.84,East,80,0.0,5.0,55,0.00,,,0.00,,2013-02-05 17:42:00,
2013-02-05 12:52:00,24.0,9.0,29.84,NW,323,0.0,7.0,52,0.00,,,0.00,,2013-02-05 17:52:00,
2013-02-05 13:02:00,25.0,10.0,29.83,NE,54,2.0,3.0,53,0.00,,,0.00,,2013-02-05 18:02:00,
2013-02-05 13:11:00,25.0,10.0,29.83,NE,54,2.0,3.0,53,0.00,,,0.00,,2013-02-05 18:11:00,
2013-02-05 13:22:00,25.0,10.0,29.83,SE,126,0.0,3.0,53,0.00,,,0.00,,2013-02-05 18:22:00,
2013-02-05 13:32:00,25.0,10.0,29.83,ENE,59,2.0,2.0,53,0.00,,,0.00,,2013-02-05 18:32:00,
2013-02-05 13:42:00,25.0,10.0,29.83,ENE,59,2.0,2.0,53,0.00,,,0.00,,2013-02-05 18:42:00,
2013-02-05 13:52:00,25.0,10.0,29.82,ENE,62,0.0,2.0,53,0.00,,,0.00,,2013-02-05 18:52:00,
2013-02-05 14:02:00,25.0,10.0,29.82,ENE,59,0.0,3.0,53,0.00,,,0.00,,2013-02-05 19:02:00,
2013-02-05 14:11:00,25.0,10.0,29.82,ENE,59,0.0,3.0,53,0.00,,,0.00,,2013-02-05 19:11:00,
2013-02-05 14:22:00,25.0,10.0,29.82,North,360,0.0,1.0,53,0.00,,,0.00,,2013-02-05 19:22:00,
2013-02-05 14:32:00,26.0,11.0,29.81,NE,54,0.0,3.0,52,0.00,,,0.00,,2013-02-05 19:32:00,
2013-02-05 14:42:00,26.0,11.0,29.81,NE,54,0.0,3.0,52,0.00,,,0.00,,2013-02-05 19:42:00,
2013-02-05 14:52:00,26.0,11.0,29.81,NE,34,0.0,3.0,52,0.00,,,0.00,,2013-02-05 19:52:00,
2013-02-05 15:02:00,26.0,11.0,29.80,ENE,58,2.0,6.0,53,0.00,,,0.00,,2013-02-05 20:02:00,
2013-02-05 15:11:00,26.0,11.0,29.80,ENE,58,2.0,6.0,53,0.00,,,0.00,,2013-02-05 20:11:00,
2013-02-05 15:21:00,27.0,12.0,29.80,SSE,151,0.0,2.0,52,0.00,,,0.00,,2013-02-05 20:21:00,
2013-02-05 15:32:00,27.0,11.0,29.80,WSW,237,0.0,1.0,50,0.00,,,0.00,,2013-02-05 20:32:00,
2013-02-05 15:42:00,27.0,11.0,29.80,WSW,237,0.0,1.0,50,0.00,,,0.00,,2013-02-05 20:42:00,
2013-02-05 15:52:00,27.0,11.0,29.79,NNE,14,0.0,1.0,51,0.00,,,0.00,,2013-02-05 20:52:00,
2013-02-05 16:02:00,28.0,12.0,29.79,North,11,0.0,0.0,50,0.00,,,0.00,,2013-02-05 21:02:00,
2013-02-05 16:11:00,28.0,12.0,29.79,North,11,0.0,0.0,50,0.00,,,0.00,,2013-02-05 21:11:00,
2013-02-05 16:22:00,28.0,13.0,29.79,SSE,165,0.0,2.0,52,0.00,,,0.00,,2013-02-05 21:22:00,
2013-02-05 16:32:00,28.0,13.0,29.79,South,182,0.0,0.0,52,0.00,,,0.00,,2013-02-05 21:32:00,
2013-02-05 16:42:00,28.0,13.0,29.79,South,182,0.0,0.0,52,0.00,,,0.00,,2013-02-05 21:42:00,
2013-02-05 16:52:00,28.0,12.0,29.79,South,182,0.0,0.0,51,0.00,,,0.00,,2013-02-05 21:52:00,
2013-02-05 17:01:00,28.0,14.0,29.78,South,184,0.0,0.0,55,0.00,,,0.00,,2013-02-05 22:01:00,
2013-02-05 17:11:00,28.0,14.0,29.78,South,184,0.0,0.0,55,0.00,,,0.00,,2013-02-05 22:11:00,
2013-02-05 17:22:00,27.0,13.0,29.79,South,182,0.0,0.0,55,0.00,,,0.00,,2013-02-05 22:22:00,
2013-02-05 17:32:00,26.0,13.0,29.78,South,182,0.0,0.0,57,0.00,,,0.00,,2013-02-05 22:32:00,
2013-02-05 17:42:00,26.0,13.0,29.78,South,182,0.0,0.0,57,0.00,,,0.00,,2013-02-05 22:42:00,
2013-02-05 17:51:00,26.0,13.0,29.78,South,182,0.0,0.0,57,0.00,,,0.00,,2013-02-05 22:51:00,
2013-02-05 18:02:00,26.0,14.0,29.78,South,181,0.0,0.0,59,0.00,,,0.00,,2013-02-05 23:02:00,
2013-02-05 18:11:00,26.0,14.0,29.78,South,181,0.0,0.0,59,0.00,,,0.00,,2013-02-05 23:11:00,
2013-02-05 18:22:00,25.0,13.0,29.78,South,179,0.0,0.0,60,0.00,,,0.00,,2013-02-05 23:22:00,
2013-02-05 18:32:00,25.0,13.0,29.78,SSE,165,0.0,0.0,60,0.00,,,0.00,,2013-02-05 23:32:00,
2013-02-05 18:42:00,25.0,13.0,29.78,SSE,165,0.0,0.0,60,0.00,,,0.00,,2013-02-05 23:42:00,
2013-02-05 18:53:00,24.0,13.0,29.78,South,172,0.0,0.0,62,0.00,,,0.00,,2013-02-05 23:53:00,
2013-02-05 19:02:00,24.0,13.0,29.78,SSW,196,0.0,0.0,63,0.00,,,0.00,,2013-02-06 00:02:00,
2013-02-05 19:12:00,24.0,13.0,29.78,SSW,196,0.0,0.0,63,0.00,,,0.00,,2013-02-06 00:12:00,
2013-02-05 19:22:00,24.0,14.0,29.78,SSW,200,0.0,0.0,64,0.00,,,0.00,,2013-02-06 00:22:00,
2013-02-05 19:32:00,24.0,14.0,29.78,SSW,200,0.0,0.0,66,0.00,,,0.00,,2013-02-06 00:32:00,
2013-02-05 19:42:00,24.0,14.0,29.78,SSW,200,0.0,0.0,66,0.00,,,0.00,,2013-02-06 00:42:00,
2013-02-05 19:52:00,24.0,14.0,29.79,SSW,200,0.0,0.0,65,0.00,,,0.00,,2013-02-06 00:52:00,
2013-02-05 20:02:00,23.0,14.0,29.79,SSW,202,0.0,0.0,67,0.00,,,0.00,,2013-02-06 01:02:00,
2013-02-05 20:12:00,23.0,14.0,29.79,SSW,202,0.0,0.0,67,0.00,,,0.00,,2013-02-06 01:12:00,
2013-02-05 20:22:00,23.0,14.0,29.80,SSW,203,0.0,0.0,67,0.00,,,0.00,,2013-02-06 01:22:00,
2013-02-05 20:32:00,23.0,14.0,29.80,SSW,203,0.0,0.0,67,0.00,,,0.00,,2013-02-06 01:32:00,
2013-02-05 20:42:00,23.0,14.0,29.80,SSW,203,0.0,0.0,67,0.00,,,0.00,,2013-02-06 01:42:00,
2013-02-05 20:52:00,23.0,14.0,29.80,SSW,203,0.0,0.0,69,0.00,,,0.00,,2013-02-06 01:52:00,
2013-02-05 21:02:00,23.0,14.0,29.80,SSW,203,0.0,0.0,69,0.00,,,0.00,,2013-02-06 02:02:00,
2013-02-05 21:11:00,23.0,14.0,29.80,SSW,203,0.0,0.0,69,0.00,,,0.00,,2013-02-06 02:11:00,
2013-02-05 21:22:00,23.0,15.0,29.80,SSW,203,0.0,0.0,71,0.00,,,0.00,,2013-02-06 02:22:00,
2013-02-05 21:32:00,23.0,15.0,29.80,SSW,203,0.0,0.0,72,0.00,,,0.00,,2013-02-06 02:32:00,
2013-02-05 21:42:00,23.0,15.0,29.80,SSW,203,0.0,0.0,72,0.00,,,0.00,,2013-02-06 02:42:00,
2013-02-05 21:53:00,23.0,16.0,29.80,SSW,203,0.0,0.0,73,0.00,,,0.00,,2013-02-06 02:53:00,
2013-02-05 22:03:00,24.0,17.0,29.80,SSW,203,0.0,0.0,74,0.00,,,0.00,,2013-02-06 03:03:00,
2013-02-05 22:12:00,24.0,17.0,29.80,SSW,203,0.0,0.0,74,0.00,,,0.00,,2013-02-06 03:12:00,
2013-02-05 22:22:00,24.0,17.0,29.80,SSW,203,0.0,0.0,75,0.00,,,0.00,,2013-02-06 03:22:00,
2013-02-05 22:32:00,24.0,18.0,29.79,SSW,203,0.0,0.0,76,0.00,,,0.00,,2013-02-06 03:32:00,
2013-02-05 22:42:00,24.0,18.0,29.79,SSW,203,0.0,0.0,76,0.00,,,0.00,,2013-02-06 03:42:00,
2013-02-05 22:53:00,24.0,18.0,29.78,SSW,203,0.0,0.0,78,0.00,,,0.00,,2013-02-06 03:53:00,
2013-02-05 23:02:00,24.0,18.0,29.78,SSW,203,0.0,0.0,79,0.00,,,0.00,,2013-02-06 04:02:00,
2013-02-05 23:11:00,24.0,18.0,29.78,SSW,203,0.0,0.0,79,0.00,,,0.00,,2013-02-06 04:11:00,
2013-02-05 23:22:00,24.0,18.0,29.79,SSW,203,0.0,0.0,79,0.00,,,0.00,,2013-02-06 04:22:00,
2013-02-05 23:32:00,24.0,18.0,29.80,SSW,203,0.0,1.0,79,0.00,,,0.00,,2013-02-06 04:32:00,
2013-02-05 23:42:00,24.0,18.0,29.80,SSW,203,0.0,1.0,79,0.00,,,0.00,,2013-02-06 04:42:00,
2013-02-05 23:52:00,25.0,19.0,29.80,SSW,206,0.0,2.0,79,0.00,,,0.00,,2013-02-06 04:52:00,